This is the latest recevied weather packets stored in our database for station/object K2CCS. If no packets are shown the sender has not sent any weather packets the latest 10 day(s).
| Time | Temp. | Humidity | Pressure | Rain* | Wind** | Luminosity | Snow |
|---|---|---|---|---|---|---|---|
| 1777984817 | 16.67° C | 66% | 1011.2 hPa | 0 mm | - | 66 W/m² | - |
| 1777984514 | 16.67° C | 66% | 1011.2 hPa | 0 mm | - | 69 W/m² | - |
| 1777984210 | 16.11° C | 66% | 1011.3 hPa | 0 mm | - | 95 W/m² | - |
| 1777983908 | 16.11° C | 67% | 1011.2 hPa | 0 mm | - | 59 W/m² | - |
| 1777983604 | 16.11° C | 66% | 1011.2 hPa | 0 mm | - | 64 W/m² | - |
| 1777983301 | 16.11° C | 66% | 1011.2 hPa | 0 mm | - | 58 W/m² | - |
| 1777982997 | 15.56° C | 67% | 1011.3 hPa | 0 mm | - | 62 W/m² | - |
| 1777982693 | 15.56° C | 68% | 1011.3 hPa | 0 mm | - | 66 W/m² | - |
| 1777982392 | 15.56° C | 69% | 1011.6 hPa | 0 mm | - | 90 W/m² | - |
| 1777982089 | 15° C | 70% | 1011.5 hPa | 0 mm | - | 65 W/m² | - |
| 1777981787 | 15° C | 70% | 1011.5 hPa | 0 mm | - | 53 W/m² | - |
| 1777981483 | 14.44° C | 70% | 1011.3 hPa | 0 mm | - | 49 W/m² | - |
| 1777981180 | 14.44° C | 70% | 1011.6 hPa | 0 mm | - | 58 W/m² | - |
| 1777980876 | 14.44° C | 70% | 1011.3 hPa | 0 mm | - | 76 W/m² | - |
| 1777980572 | 13.89° C | 71% | 1011.2 hPa | 0 mm | - | 71 W/m² | - |
| 1777980270 | 13.89° C | 71% | 1011 hPa | 0 mm | - | 50 W/m² | - |
| 1777979966 | 13.89° C | 72% | 1011 hPa | 0 mm | - | 39 W/m² | - |
| 1777979661 | 13.89° C | 71% | 1011.3 hPa | 0 mm | - | 31 W/m² | - |
| 1777979357 | 13.89° C | 70% | 1011 hPa | 0 mm | - | 29 W/m² | - |
| 1777979054 | 13.89° C | 69% | 1011.1 hPa | 0 mm | - | 39 W/m² | - |
| 1777978751 | 14.44° C | 68% | 1011.1 hPa | 0 mm | - | 32 W/m² | - |
| 1777978448 | 14.44° C | 67% | 1011.1 hPa | 0 mm | - | 30 W/m² | - |
| 1777978144 | 13.89° C | 67% | 1010.9 hPa | 0 mm | - | 39 W/m² | - |
| 1777977841 | 13.89° C | 67% | 1010.7 hPa | 0 mm | - | 22 W/m² | - |
| 1777977537 | 14.44° C | 66% | 1010.9 hPa | 0 mm | - | 23 W/m² | - |
* Rain latest hour (hover to see other rain measurements)
** Current wind speed in m/s (hover to see current wind gust speed)